Simultaneous Nadir Overpasses (SNOs) Predictions

Prediction of SNOs between FY3D and TERRA Satellite Orbit:

Table of predicted SNOs for the next 14.0 days since TLE Epoch: 7/15/2024
Index Date (FY3D) Time (FY3D) Lat,Lon (FY3D) SZA (FY3D ) Date (TERRA) Time (TERRA) Lat,Lon (TERRA) SZA (TERRA ) Distance(km) Time Diff (sec)
1 07/16/2024 07:04:08 75.85, 74.24 54.51 07/16/2024 07:04:16 75.89, 74.25 54.55 3.88 8
2 07/16/2024 07:54:52 -75.83,-118.37 125.51 07/16/2024 07:53:39 -75.83,-118.27 125.51 2.65 73
3 07/18/2024 18:17:00 75.88, -94.00 54.97 07/18/2024 18:17:24 75.87, -94.12 54.96 3.08 24
4 07/18/2024 19:07:44 -75.85, 73.39 125.05 07/18/2024 19:06:46 -75.86, 73.50 125.05 3.11 58
5 07/21/2024 05:29:52 75.91, 97.72 55.47 07/21/2024 05:30:30 75.92, 97.71 55.48 1.34 38
6 07/21/2024 06:20:35 -75.84, -94.73 124.60 07/21/2024 06:19:53 -75.85, -94.83 124.59 2.84 42
7 07/23/2024 16:42:43 75.95, -70.58 56.01 07/23/2024 16:43:35 75.93, -70.57 55.99 1.87 52
8 07/23/2024 17:33:26 -75.88, 96.96 124.05 07/23/2024 17:32:58 -75.86, 96.89 124.07 2.75 28
9 07/26/2024 03:55:34 75.95, 121.24 56.55 07/26/2024 03:56:40 75.96, 121.21 56.55 1.20 66
10 07/26/2024 04:46:17 -75.89, -71.22 123.51 07/26/2024 04:46:03 -75.89, -71.34 123.51 3.34 14
11 07/28/2024 15:08:31 76.24, -47.94 57.41 07/28/2024 15:09:41 76.15, -46.53 57.31 38.65 70
12 07/28/2024 15:59:09 -75.95, 120.42 122.89 07/28/2024 15:59:07 -75.93, 120.47 122.90 2.39 2



Historial Predications of SNOs between FY3D and TERRA
